Regional Weather Roundup
Issued by NWS Charleston, SC

Home | Current Version | Previous Version | Text Only | Print | Product List | Glossary On
Versions: 1 2 3 4 5 6 7 8 9 10 11 12 13 14 15 16 17 18 19 20 21 22 23 24 25 26 27 28 29 30 31 32 33 34 35 36 37 38 39 40 41 42 43 44 45 46 47 48 49 50
000
ASUS42 KCHS 300427
RWRCHS

REGIONAL WEATHER ROUNDUP
NATIONAL WEATHER SERVICE CHARLESTON SC
1200 AM EDT SUN APR 30 2017

NOTE: "FAIR" INDICATES FEW OR NO CLOUDS BELOW 12,000 FEET WITH NO
SIGNIFICANT WEATHER AND/OR OBSTRUCTIONS TO VISIBILITY.

NOT ALL STATIONS ARE QUALITY CONTROLLED. USE DATA WITH CAUTION...
ESPECIALLY DEWPOINT OBSERVATIONS.

SCZ027-030-031-034>040-042>050-300500-
...SOUTHEAST SOUTH CAROLINA...

CITY           SKY/WX    TMP DP  RH WIND       PRES   REMARKS
N CHARLESTON   PTCLDY    74  69  85 S10       30.19S
WATERFRONT PRK   N/A     75  73  93 S9        30.17S
JOHNS ISLAND   FAIR      75  72  88 SE6       30.20R
PINOPOLIS        N/A     73  72  94 CALM      30.11S
MONCKS CORNER  FAIR      70  70 100 S3        30.19S
SUMMERVILLE    FAIR      72  70  94 CALM      30.20S
BEAUFORT MCAS  PTCLDY    77  75  93 S7        30.18R
BEAUFORT ARPT  FAIR      73  72  94 S6        30.18S
HILTON HEAD IS CLOUDY    75  73  94 VRB6G13   30.19S
WALTERBORO     PTCLDY    70  70 100 CALM      30.19S
ALLENDALE      FAIR      72  70  94 SE5       30.16F

...SOUTHERN MIDLANDS AND PEE DEE...

CITY           SKY/WX    TMP DP  RH WIND       PRES   REMARKS
GEORGETOWN     FAIR      72  70  94 SE3       30.21S
KINGSTREE      FAIR      70  68  94 SE3       30.19S
ORANGEBURG     PTCLDY    71  69  93 SE3       30.19R
BARNWELL       FAIR      73  72  94 CALM      30.17S
AIKEN          FAIR      70  66  88 SE6       30.21S
MANNING        FAIR      70  66  88 S15       30.20R
COLUMBIA       CLEAR     74  67  78 SE7       30.17R
SUMTER         CLOUDY    72  68  87 S5        30.17R
FLORENCE       PTCLDY    72  70  93 S7        30.19S
MYRTLE BEACH   NOT AVBL
N MYRTLE BEACH PTCLDY    74  72  93 S10       30.20F

$$

GAZ063-065-086>088-099>101-113>116-118-119-134>141-150-300500-
...SOUTHEAST GEORGIA...

CITY           SKY/WX    TMP DP  RH WIND       PRES   REMARKS
SAVANNAH ARPT  CLOUDY    75  69  81 SE8       30.18R
HUNTER AAF     PTCLDY    75  75 100 SE5       30.15S FOG
FORT STEWART   CLEAR     72  68  89 E3        30.14S
STATESBORO     CLEAR     73  73 100 CALM      30.16S
SYLVANIA       PTCLDY   N/A N/A N/A CALM      30.18S
CLAXTON        FAIR     N/A N/A N/A CALM      30.16S

...CSRA...CENTRAL AND FAR SOUTHEAST GEORGIA...

CITY           SKY/WX    TMP DP  RH WIND       PRES   REMARKS
THOMSON        PTCLDY    73  67  80 SW7       30.20S
AUGUSTA-BUSH   PTCLDY    74  68  81 SE8       30.15R HAZE
AUGUSTA-DANIEL PTCLDY    75  66  73 SE8       30.17R
SWAINSBORO     FAIR      73  68  83 SE9       30.16S
VIDALIA        CLOUDY    73  68  83 SE7       30.16R
EASTMAN        FAIR      77  60  56 SE6       30.15S
HAZLEHURST     FAIR      75  70  86 SE6       30.13S
ALMA           MOCLDY    73  70  90 SE8       30.13S
WAYCROSS       MOCLDY    76  75  97 SE8       30.14S
JESUP          FAIR      72  68  88 SE6       30.15F
BAXLEY         FAIR      73  73 100 SE7       30.14S
BRUNSWICK      PTCLDY    77  72  83 SE8       30.16F
SAINT SIMONS   PTCLDY    76  71  85 SE10      30.16S

$$

SCZ027-028-034-036>038-045-046-048>050-GAZ119-141-300500-
...LAKE AND SUPPLEMENTAL COASTAL OBSERVATIONS...

STATION/POSITION TIME  TEMP    WIND        PRES    WAVE   SWELL
                       AIR SEA DIR/SP/G            HT/PER HT/PER/DIR
                 (UTC) (F)     (DEG/KT/KT) (MB)    (FT/S) (FT/S/D)
WINYAH BAY       0345   74     160/  9     1022.0F
LAKE MURRAY      0420   74     150/  8/ 10 1021.0
ACE BASIN NERRS  0330   75     150/  2     1022.0S
FORT PULASKI     0400   75 76  150/  4/  6 1022.2
SAPELO ISLAND    0345   75     140/  7     1021.0S

$$

ANZ835-935-AMZ111-154-330-350-352-354-370-450-454-472-300500-
...C-MAN AND BUOY OBSERVATIONS...

STATION/POSITION TIME  TEMP    WIND        PRES    WAVE   SWELL
                       AIR SEA DIR/SP/G            HT/PER HT/PER/DIR
                 (UTC) (F)     (DEG/KT/KT) (MB)    (FT/S) (FT/S/D)
BUOY 41004       0400   76 76  150/ 10/ 14 1022.1
BUOY 41008       0350   74 74  130/ 10/ 12 1021.0F   3/ 6   2/120/ 6
FOLLY BEACH CMAN 0400   75     160/ 10/ 11 1023.1R
CAPERS NEARSHORE 0408   76 76  160/ 10/ 14 1022.4R
FRIPP NEARSHORE  0408   75 73  150/ 10/ 12 1021.8R


STATION/POSITION TIME  TEMP    WIND        PRES    WAVE   SWELL
                       AIR SEA DIR/SP/G            HT/PER HT/PER/DIR
                 (UTC) (F)     (DEG/KT/KT) (MB)    (FT/S) (FT/S/D)
5E ST. MARYS GA  0400      75                N/A     3/ 6
FRYING PAN BUOY  0410   75 74  180/ 12/ 14 1023.0
BUOY 41025       0350   76 75  230/ 14/ 16 1023.1S   3/ 5   2/150/ 7
CAPE LOOKOUT NC  0400   73     210/  7/  9 1022.9F
BUOY 41002       0350   74 76  170/ 12/ 12 1024.7F   3/ 7   2/120/ 7
BUOY 41010       0410   78 78  120/ 17/ 21 1022.0
ST AUGUSTINE FL  0400   76 78  140/ 17/ 20 1021.6F


$$



USA.gov is the U.S. government's official web portal to all federal, state and local government web resources and services.